Date String (YYYY-MM-DD hh:mm:ss) UTC,Instrument flags,absolute air pressure of the measurement (hPa),sample flow rate (lpm),inlet stack bypass flow (lpm),air temperature of the measurement (°C),ambient temperature measured by the external sensor (°C),aerosol sample conditioner tube jacket temperature (°C),OPC LED temperature (°C),internal box temperature (°C),relative humidity of the measurement (%),span deviation,mass concentration of particles derived from Lorenz-Mie calculation of OPC scattering (μg/m³),mass concentration of particles derived from Lorenz-Mie calculation of OPC scattering (μg/m³),mass concentration of particles derived from Lorenz-Mie calculation of OPC scattering (μg/m³)
DateTimeUTC,F1_M11,P_M11,Q1_M11,Q2_M11,T1_M11,T2_M11,T3_M11,T4_M11,T5_M11,U1_M11,ZSPAN_M11,X0_M11,X2_M11,X1_M11
2024-01-03 14:00:00,SystemResetWarning,0829.7,5.00,000.00,018.7,017.7,000.0,027.1,020.0,13.3,0000.0,0008.78,0004.57,0004.23
2024-01-03 14:01:00,SystemResetWarning,0829.7,5.01,000.00,018.7,017.7,000.0,027.1,020.0,12.6,0000.0,0009.05,0004.56,0004.23
2024-01-03 14:02:00,SystemResetWarning,0829.7,5.01,000.00,018.7,017.7,000.0,027.1,020.0,12.2,0000.0,0009.13,0004.57,0004.24
2024-01-03 14:03:00,SystemResetWarning,0829.7,5.00,000.00,018.7,017.7,000.0,027.1,020.0,12.1,0000.0,0009.30,0004.60,0004.27
2024-01-03 14:04:00,SystemResetWarning,0829.7,5.00,000.00,018.7,017.7,000.0,027.1,020.0,11.9,0000.0,0009.91,0004.65,0004.26
2024-01-03 14:05:00,SystemResetWarning,0829.7,5.00,000.00,018.7,017.7,000.0,027.1,020.0,11.9,0000.0,0010.13,0004.61,0004.21
2024-01-03 14:06:00,SystemResetWarning,0829.7,5.00,000.00,018.7,017.6,000.0,027.1,020.0,12.3,0000.0,0009.88,0004.54,0004.16
2024-01-03 14:07:00,SystemResetWarning,0829.7,5.01,000.00,018.7,017.6,000.0,027.1,020.0,12.3,0000.0,0009.41,0004.50,0004.13
2024-01-03 14:08:00,SystemResetWarning,0829.7,5.01,000.00,018.7,017.6,000.0,027.1,020.0,12.0,0000.0,0009.39,0004.47,0004.11
2024-01-03 14:09:00,SystemResetWarning,0829.7,5.00,000.00,018.7,017.6,000.0,027.1,020.0,12.0,0000.0,0009.58,0004.46,0004.09
2024-01-03 14:10:00,SystemResetWarning,0829.7,4.99,000.00,018.7,017.6,000.0,027.1,020.0,12.0,0000.0,0010.07,0004.44,0004.06
2024-01-03 14:11:00,SystemResetWarning,0829.7,5.00,000.00,018.7,017.6,000.0,027.1,020.0,12.0,0000.0,0010.98,0004.42,0004.05
2024-01-03 14:12:00,SystemResetWarning,0829.7,5.00,000.00,018.7,017.6,000.0,027.1,020.0,11.9,0000.0,0011.54,0004.45,0004.06
2024-01-03 14:13:00,SystemResetWarning,0829.7,5.00,000.00,018.7,017.6,000.0,027.1,020.0,11.9,0000.0,0011.56,0004.43,0004.04
2024-01-03 14:14:00,SystemResetWarning,0829.7,5.00,000.00,018.7,017.6,000.0,027.1,020.0,12.0,0000.0,0011.31,0004.31,0003.93
2024-01-03 14:15:00,SystemResetWarning,0829.7,5.00,000.00,018.7,017.6,000.0,027.1,020.0,11.9,0000.0,0010.76,0004.17,0003.83
2024-01-03 14:16:00,SystemResetWarning,0829.6,5.01,000.00,018.7,017.5,000.0,027.1,020.0,11.9,0000.0,0010.37,0004.07,0003.78
2024-01-03 14:17:00,SystemResetWarning,0829.7,5.01,000.00,018.7,017.5,000.0,027.1,020.0,11.9,0000.0,0010.58,0004.02,0003.71
2024-01-03 14:18:00,SystemResetWarning,0829.7,5.00,000.00,018.7,017.5,000.0,027.1,020.0,11.9,0000.0,0010.53,0003.98,0003.67
2024-01-03 14:19:00,SystemResetWarning,0829.7,4.99,000.00,018.7,017.5,000.0,027.1,020.0,11.8,0000.0,0010.45,0003.96,0003.66
2024-01-03 14:20:00,SystemResetWarning,0829.7,5.00,000.00,018.7,017.5,000.0,027.1,020.0,11.5,0000.0,0010.03,0003.88,0003.60
2024-01-03 14:21:00,SystemResetWarning,0829.7,5.00,000.00,018.7,017.5,000.0,027.1,020.0,11.3,0000.0,0008.97,0003.80,0003.53
2024-01-03 14:22:00,SystemResetWarning,0829.7,4.99,000.00,018.7,017.5,000.0,027.1,020.0,11.3,0000.0,0007.58,0003.68,0003.43
2024-01-03 14:23:00,SystemResetWarning,0829.7,4.99,000.00,018.7,017.5,000.0,027.1,020.0,11.4,0000.0,0006.26,0003.55,0003.32
2024-01-03 14:24:00,SystemResetWarning,0829.7,4.99,000.00,018.7,017.5,000.0,027.1,020.0,11.4,0000.0,0005.24,0003.43,0003.23
2024-01-03 14:25:00,SystemResetWarning,0829.7,5.01,000.00,018.6,017.4,000.0,027.2,020.0,11.5,0000.0,0005.12,0003.40,0003.21
2024-01-03 14:26:00,SystemResetWarning,0829.7,5.01,000.00,018.6,017.4,000.0,027.1,020.0,11.7,0000.0,0005.09,0003.39,0003.21
2024-01-03 14:27:00,SystemResetWarning,0829.7,5.01,000.00,018.7,017.4,000.0,027.1,020.0,11.6,0000.0,0004.95,0003.38,0003.20
2024-01-03 14:28:00,SystemResetWarning,0829.7,5.00,000.00,018.7,017.4,000.0,027.1,020.0,11.5,0000.0,0005.03,0003.36,0003.20
2024-01-03 14:29:00,SystemResetWarning,0829.7,5.01,000.00,018.7,017.4,000.0,027.2,020.0,11.5,0000.0,0005.59,0003.35,0003.19
2024-01-03 14:30:00,SystemResetWarning,0829.7,4.99,000.00,018.6,017.4,000.0,027.1,020.0,11.5,0000.0,0005.57,0003.30,0003.13
2024-01-03 14:31:00,SystemResetWarning,0829.6,4.99,000.00,018.6,017.4,000.0,027.1,020.0,11.4,0000.0,0005.70,0003.28,0003.11
2024-01-03 14:32:00,SystemResetWarning,0829.7,4.99,000.00,018.6,017.4,000.0,027.1,020.0,11.3,0000.0,0005.89,0003.26,0003.09
2024-01-03 14:33:00,SystemResetWarning,0829.6,5.00,000.00,018.6,017.4,000.0,027.2,020.0,11.4,0000.0,0005.83,0003.22,0003.01
2024-01-03 14:34:00,SystemResetWarning,0829.7,5.01,000.00,018.6,017.3,000.0,027.2,020.0,11.6,0000.0,0005.74,0003.17,0002.91
2024-01-03 14:35:00,SystemResetWarning,0829.7,5.01,000.00,018.6,017.3,000.0,027.2,020.0,11.9,0000.0,0005.65,0003.13,0002.84
2024-01-03 14:36:00,SystemResetWarning,0829.7,5.00,000.00,018.6,017.3,000.0,027.2,020.0,11.6,0000.0,0006.53,0003.10,0002.78
2024-01-03 14:37:00,SystemResetWarning,0829.6,5.00,000.00,018.6,017.3,000.0,027.2,020.0,11.5,0000.0,0007.24,0003.03,0002.73
2024-01-03 14:38:00,SystemResetWarning,0829.6,4.99,000.00,018.6,017.3,000.0,027.2,020.0,11.7,0000.0,0007.71,0002.96,0002.67
2024-01-03 14:39:00,SystemResetWarning,0829.6,5.00,000.00,018.6,017.3,000.0,027.2,020.0,11.6,0000.0,0007.33,0002.93,0002.63
2024-01-03 14:40:00,SystemResetWarning,0829.6,5.00,000.00,018.6,017.3,000.0,027.2,020.0,11.6,0000.0,0006.64,0002.85,0002.57
2024-01-03 14:41:00,SystemResetWarning,0829.6,5.00,000.00,018.6,017.3,000.0,027.1,020.1,11.6,0000.0,0006.63,0002.80,0002.52
2024-01-03 14:42:00,SystemResetWarning,0829.6,5.01,000.00,018.7,017.9,000.0,027.1,020.5,11.5,0000.0,0006.55,0002.76,0002.48
2024-01-03 14:43:00,SystemResetWarning,0829.6,5.01,000.00,018.8,018.5,000.0,027.1,020.7,11.3,0000.0,0006.20,0002.72,0002.47
2024-01-03 14:44:00,SystemResetWarning,0829.6,4.98,000.00,018.9,018.6,000.0,027.1,020.4,11.6,0000.0,0006.31,0002.77,0002.50
2024-01-03 14:45:00,SystemResetWarning,0829.6,5.00,000.00,018.9,018.5,000.0,027.1,020.3,12.2,0000.0,0006.42,0002.83,0002.53
2024-01-03 14:46:00,SystemResetWarning,0829.6,5.01,000.00,018.9,018.4,000.0,027.1,020.2,12.3,0000.0,0006.61,0002.90,0002.58
2024-01-03 14:47:00,SystemResetWarning,0829.6,5.00,000.00,018.9,018.3,000.0,027.1,020.2,11.7,0000.0,0007.22,0003.05,0002.68
2024-01-03 14:48:00,SystemResetWarning,0829.6,5.00,000.00,018.8,018.2,000.0,027.1,020.1,11.4,0000.0,0006.77,0003.11,0002.73
2024-01-03 14:49:00,SystemResetWarning,0829.6,5.00,000.00,018.8,018.1,000.0,027.1,020.1,11.0,0000.0,0005.95,0003.13,0002.73
2024-01-03 14:50:00,SystemResetWarning,0829.6,5.00,000.00,018.8,018.0,000.0,027.1,020.0,11.0,0000.0,0006.26,0003.15,0002.77
2024-01-03 14:51:00,SystemResetWarning,0829.6,4.99,000.00,018.8,017.9,000.0,027.1,020.0,11.0,0000.0,0006.46,0003.20,0002.82
2024-01-03 14:52:00,SystemResetWarning,0829.6,5.00,000.00,018.8,017.9,000.0,027.1,020.0,11.0,0000.0,0006.86,0003.22,0002.86
2024-01-03 14:53:00,SystemResetWarning,0829.7,5.00,000.00,018.8,017.8,000.0,027.1,020.0,11.0,0000.0,0007.44,0003.22,0002.88
2024-01-03 14:54:00,SystemResetWarning,0829.7,5.00,000.00,018.7,017.8,000.0,027.1,020.0,11.1,0000.0,0007.46,0003.25,0002.91
2024-01-03 14:55:00,SystemResetWarning,0829.7,5.00,000.00,018.7,017.8,000.0,027.1,020.0,11.2,0000.0,0007.41,0003.24,0002.93
2024-01-03 14:56:00,SystemResetWarning,0829.7,5.00,000.00,018.7,017.7,000.0,027.1,020.0,11.1,0000.0,0007.47,0003.26,0002.97
2024-01-03 14:57:00,SystemResetWarning,0829.7,5.00,000.00,018.7,017.7,000.0,027.1,020.0,11.1,0000.0,0007.66,0003.35,0003.08
2024-01-03 14:58:00,SystemResetWarning,0829.7,4.99,000.00,018.7,017.7,000.0,027.1,020.0,11.1,0000.0,0006.88,0003.39,0003.15
2024-01-03 14:59:00,SystemResetWarning,0829.7,4.99,000.00,018.7,017.7,000.0,027.1,020.0,11.1,0000.0,0006.81,0003.42,0003.18
